Back to catalog

STARLINK-34151

AliveCommunicationsVLEO
NORAD 64120·PAYLOAD·🇺🇸 United States

Launched May 23, 2025 from Vandenberg Space Force Base

Loading…

Next Passes (next 24 hours)

TLE

FreshSource: CelesTrak SupGP

Epoch: Sep 15, 2026, 03:25 UTC

1 64120C 25110AA  26258.14284722 -.00042523  00000+0 -13963-2 0  2584
2 64120  53.1585 226.3796 0001309  88.5944 294.7843 15.31053365    18

Track STARLINK-34151 in real time with AllMySat

Download on the App Store